Вернуться в каталог

FENGYUN 1C DEB

АктивенPO
NORAD 31072·DEBRIS·🇨🇳 China

Запущен May 10, 1999 с Taiyuan Satellite Launch Center

Loading…

Ближайшие Пролёты (ближайшие 24 часа)

TLE

СвежийSource: Space-Track

Эпоха: Sep 13, 2026, 00:37 UTC

1 31072U 99025BFS 26256.02571365  .00001088  00000-0  37822-3 0  9990
2 31072  99.3214 284.2407 0207763  34.3138 327.1262 14.26419864  5381

Отслеживайте FENGYUN 1C DEB в реальном времени с AllMySat

Download on the App Store